This demonstration page uses our WeatherBlox Daily Observations layout. Learn more.

Left ArrowRight Arrow

36.17497, -115.13722

Hourly Observations for August 14, 2020

Temp ( °F °C ) Dew Point ( °F °C ) Humidity (%) Winds ( mph kmh ) Pressure ( in mb ) Visibility ( mi km ) Precip ( " mm )
12:53 am 00:53 Clear 92 33.3 43 6.1 18 18 NW 8 13 29.83 1010 10 16 N/A
1:53 am 01:53 Clear 91 32.8 45 7.2 20 20 W 7 11 29.82 1010 10 16 N/A
2:53 am 02:53 Clear 91 32.8 45 7.2 20 20 WNW 3 6 29.83 1010 10 16 N/A
3:53 am 03:53 Clear 89 31.7 42 5.6 19 19 NNW 8 13 29.83 1010 10 16 N/A
4:53 am 04:53 Clear 88 31.1 42 5.6 20 20 WNW 8 13 29.85 1011 10 16 N/A
5:53 am 05:53 Clear 87 30.6 42 5.6 21 21 W 6 9 29.87 1012 10 16 N/A
6:53 am 06:53 Sunny 87 30.6 44 6.7 22 22 NNW 8 13 29.90 1012 10 16 N/A
7:53 am 07:53 Sunny 92 33.3 43 6.1 18 18 NNW 9 15 29.91 1013 10 16 N/A
8:53 am 08:53 Sunny 96 35.6 43 6.1 16 16 NW 8 13 29.92 1013 10 16 N/A
9:53 am 09:53 Sunny 100 37.8 45 7.2 15 15 N 6 9 29.93 1013 10 16 N/A
10:53 am 10:53 Sunny 101 38.3 42 5.6 13 13 SE 7 11 29.93 1014 10 16 N/A
11:53 am 11:53 Sunny 104 40 43 6.1 12 12 VRB 3 6 29.91 1013 10 16 N/A
12:53 pm 12:53 Sunny 106 41.1 43 6.1 12 12 E 6 9 29.89 1012 10 16 N/A
1:53 pm 13:53 Sunny 107 41.7 43 6.1 11 11 WSW 5 7 29.86 1011 10 16 N/A
2:53 pm 14:53 Sunny 109 42.8 43 6.1 11 11 SW 8 13 29.83 1010 10 16 N/A
3:53 pm 15:53 Sunny 110 43.3 42 5.6 10 10 WSW 5 7 29.80 1009 10 16 N/A
4:53 pm 16:53 Sunny 110 43.3 41 5 10 10 SE 6 9 29.79 1009 10 16 N/A
5:53 pm 17:53 Sunny 111 43.9 36 2.2 8 8 NNW 10 17 29.78 1009 10 16 N/A
6:53 pm 18:53 Sunny 110 43.3 37 2.8 8 8 NNW 13 20 29.78 1008 10 16 N/A
7:53 pm 19:53 Clear 107 41.7 38 3.3 9 9 NNW 9 15 29.79 1009 10 16 N/A
8:53 pm 20:53 Clear 103 39.4 39 3.9 11 11 WNW 8 13 29.80 1009 10 16 N/A
9:53 pm 21:53 Clear 101 38.3 43 6.1 14 14 W 6 9 29.81 1010 10 16 N/A
10:53 pm 22:53 Clear 99 37.2 41 5 14 14 N N/A 29.82 1010 10 16 N/A
11:53 pm 23:53 Clear 96 35.6 41 5 15 15 WNW 6 9 29.82 1010 10 16 N/A

Powered by AerisWeather